Location: Lourdes
(43.1000°N, 0.0500°W)
Time: 18:21:16
(UTC+00:00)

Daily predictions for brighter satellites

Satellite Brightness Start Highest point End
(mag) Time Altitude Azimuth Time Altitude Azimuth Time Altitude Azimuth
Sich 1 3.1 16:50:05 10° N 16:54:26 61° E 16:58:42 10° SSE
Cosmos 1862 4.4 16:51:10 10° NNW 16:55:05 51° W 16:58:56 10° S
Cosmos 2341 Rocket 4.2 16:49:34 10° N 16:55:47 56° ENE 17:01:58 10° SSE
Cosmos 1125 Rocket 4.2 16:51:49 10° NNW 16:56:57 60° WSW 17:02:04 10° S
SL-8 Rocket 4.3 16:51:56 10° N 16:57:54 44° ENE 17:03:51 10° SSE
NOAA 6 4.0 16:52:46 10° SSE 16:57:54 77° ENE 17:03:03 10° N
Cosmos 1151 Rocket 3.8 16:54:55 10° SSE 16:58:43 32° E 17:02:31 10° NNE
ERS-2 3.8 16:58:41 10° NE 17:01:04 16° E 17:03:26 10° SE
Cosmos 2285 Rocket 4.1 17:00:15 10° NNW 17:06:31 53° ENE 17:12:41 10° SE
BREEZE-M DEB (TANK) 1.7 17:04:12 10° WSW 17:07:23 86° NNW 17:09:12 11° ENE
Cosmos 1606 2.8 17:04:04 10° S 17:07:57 84° W 17:11:52 10° N
ADEOS Rocket 3.8 17:00:15 10° N 17:08:03 78° WNW 17:15:41 10° SSW
Cosmos 2297 3.7 17:02:27 10° NNW 17:08:08 67° ENE 17:13:49 10° SSE
Cosmos 1867 4.1 17:03:22 10° SW 17:08:44 61° NW 17:14:09 10° NNE
COSMO-SKYMED 1 4.1 17:06:04 10° NE 17:09:02 18° E 17:12:00 10° SE
SL-16 R/B 2.2 17:05:25 10° SSW 17:11:04 81° ESE 17:16:45 10° NNE
Cosmos 44 3.5 17:06:03 10° NNW 17:11:22 76° NE 17:16:47 10° SE
YAOGAN 6 2.7 17:11:29 10° S 17:15:07 83° WSW 17:18:44 10° NNW
ISS -1.9 17:13:44 10° NW 17:16:15 19° N 17:18:35 11° NE
Envisat 3.4 17:13:21 10° S 17:18:24 69° WSW 17:23:30 10° NNW
Cosmos 2181 Rocket 4.1 17:13:01 10° S 17:19:20 63° E 17:25:36 10° NNE
CRYOSAT 2 4.4 17:15:49 10° N 17:20:45 88° W 17:25:38 10° S
SL-23 DEB 4.1 17:18:52 10° SW 17:22:15 61° SE 17:26:31 14° ENE
Cosmos 1328 Rocket 3.6 17:19:12 10° S 17:23:23 53° E 17:27:37 10° NNE
Cosmos 773 Rocket 4.0 17:20:53 10° S 17:26:06 72° ESE 17:31:24 10° NNE
Cosmos 1933 Rocket 4.5 17:22:44 10° NNE 17:26:35 27° ENE 17:30:23 10° SE
Cosmos 1666 Rocket 3.6 17:23:18 10° N 17:27:45 89° E 17:32:12 10° S
NOSS 3-2 (A) 4.4 17:30:04 10° SSE 17:34:29 25° ESE 17:37:25 17° ENE
H-2A R/B 3.9 17:35:05 10° S 17:39:08 41° W 17:43:03 10° NNW
Cosmos 1939 Rocket 3.2 17:36:17 10° SE 17:39:54 39° ENE 17:43:34 10° N
Okean-O 3.7 17:36:44 10° ESE 17:40:12 23° ENE 17:43:40 10° NNE
CZ-4 R/B 2.8 17:41:03 19° NE 17:41:03 19° NE 17:43:12 10° NNE
Okean O Rocket 1.7 17:35:53 10° S 17:40:13 78° WSW 17:44:38 10° NNW
Cosmos 482 Debris 2.6 17:38:39 10° NW 17:40:25 48° NNE 17:40:27 48° NE
CZ-4B R/B 1.2 17:39:23 12° NNE 17:42:11 61° ESE 17:45:18 10° S
H-2A R/B 3.0 17:38:53 10° N 17:42:57 49° WNW 17:47:06 10° SW
CZ-2C R/B 3.7 17:41:25 10° SE 17:45:38 28° ENE 17:49:45 10° N
USA 215 3.6 17:43:41 18° ENE 17:48:25 48° SE 17:54:41 10° SSW
Cosmos 1812 3.8 17:46:42 10° SE 17:49:34 25° E 17:49:34 25° E
CORIOLIS 4.5 17:45:08 10° S 17:50:31 71° WSW 17:55:59 10° NNW
Cosmos 1633 Rocket 3.7 17:48:31 10° NNW 17:52:50 59° W 17:57:05 10° S
USA 238 DEB 4.3 17:47:09 10° S 17:52:51 33° ESE 17:55:54 23° ENE
USA 238 4.3 17:47:15 10° S 17:52:57 33° ESE 17:55:58 23° ENE
SAR-Lupe-4 3.8 17:54:21 28° NE 17:55:48 45° E 17:59:14 10° S
Cosmos 2218 Rocket 4.1 17:50:06 10° N 17:56:16 81° W 18:02:26 10° S
SKYMED 2 3.6 17:53:27 12° NNE 17:57:25 57° E 18:01:41 10° S
Cosmos 2366 rocket 4.1 17:52:25 10° N 17:58:37 81° W 18:04:45 10° S
Cosmos 1602 3.7 17:55:00 10° N 17:58:55 87° WSW 18:02:48 10° S
Meteor 1-26 Rocket 4.5 17:53:32 10° SSW 17:59:33 80° W 18:05:36 10° N
Meteor 1-4 Rocket 2.8 17:57:21 10° SSW 18:00:56 68° WNW 18:04:24 11° N
Cosmos 158 Rocket 4.4 17:57:23 10° SSE 18:01:52 35° ESE 18:03:00 31° ENE
NOAA 11 4.4 17:57:23 10° S 18:02:47 73° WSW 18:08:14 10° NNW
CZ-4B R/B 4.3 17:57:54 10° S 18:02:59 45° W 18:08:04 10° NNW
Cosmos 489 Rocket 4.5 17:58:01 10° SSW 18:04:13 86° WNW 18:10:29 10° NNE
CZ-2D R/B 3.2 18:01:49 10° SSE 18:05:31 54° ENE 18:09:18 10° N
MOS 1 Rocket 4.1 18:03:11 22° NE 18:06:04 38° E 18:11:01 10° SSE
Meteor 1-14 Rocket 4.3 18:00:18 10° N 18:06:18 81° E 18:12:18 10° SSE
Cosmos 1603 3.7 18:01:00 10° S 18:06:31 61° ESE 18:09:58 23° NE
H-2A R/B 2.7 18:06:32 31° ENE 18:06:33 31° ENE 18:11:01 10° N
Cosmos 1782 3.1 18:03:48 10° SSW 18:07:43 66° W 18:11:42 10° N
IRS-1C Rocket 4.0 18:04:54 10° SSE 18:10:08 72° ENE 18:15:25 10° N
Cosmos 1943 3.2 18:05:28 10° S 18:10:59 58° ESE 18:14:01 27° NE
SAR-Lupe-1 3.9 18:11:44 42° NNE 18:12:48 72° ESE 18:16:22 10° S
Meteor 1-5 Rocket 4.3 18:07:49 10° N 18:13:39 56° ENE 18:19:15 10° SSE
SL-24 DEB 4.1 18:09:35 10° N 18:14:21 80° E 18:19:02 10° S
BREEZE-M R/B 4.5 18:12:20 10° WNW 18:14:50 23° SW 18:15:46 17° S
Cosmos 2369 Rocket 2.1 18:09:10 10° NNW 18:14:54 83° ENE 18:20:32 10° SSE
USA 281 3.3 18:11:12 10° SE 18:17:31 53° ENE 18:23:53 10° NNW
Cosmos 1943 Rocket 2.8 18:14:29 10° NNW 18:19:55 56° WSW 18:25:21 10° S
Cosmos 2239 Rocket 4.5 18:14:32 10° N 18:20:35 55° ENE 18:26:38 10° SSE
USA 267 3.7 18:18:31 32° ENE 18:20:45 42° NNE 18:26:50 10° NW
FALCON 9 R/B 2.8 18:19:25 10° SW 18:20:40 15° S 18:20:40 15° S
Cosmos 1238 Rocket 4.0 18:24:01 34° SE 18:24:01 34° SE 18:27:10 10° SSE
Cosmos 1680 Rocket 3.7 18:19:41 10° S 18:24:41 45° ESE 18:25:01 45° E
X-37B 1.1 18:22:34 10° W 18:25:15 58° WNW 18:25:15 58° WNW
YAOGAN 1 3.4 18:29:03 34° NNE 18:29:03 34° NNE 18:31:41 10° N
Cosmos 1689 Rocket 3.7 18:29:45 29° SSW 18:29:45 29° SSW 18:31:19 10° SSW
Meteor 1-10 Rocket 4.1 18:24:28 10° S 18:30:03 66° E 18:33:02 28° NNE
Lacrosse 5 rocket 3.2 18:28:39 10° WNW 18:31:00 16° NNW 18:31:27 16° NNW
SL-24 R/B 4.0 18:30:04 34° N 18:31:34 65° WNW 18:35:10 10° SSW
ERS-2 3.8 18:31:57 14° N 18:34:42 33° WNW 18:38:01 10° SW
Cosmos 44 Rocket 3.6 18:37:43 10° NNW 18:42:14 54° NNE 18:42:14 54° NNE
Cosmos 1934 Rocket 4.0 18:38:27 10° N 18:44:45 59° E 18:50:55 10° SSE
Cosmos 2112 Rocket 4.2 18:39:44 10° S 18:44:13 54° SE 18:44:13 54° SE
COSMO-SKYMED 1 3.7 18:42:02 15° N 18:45:24 43° WNW 18:49:30 10° SW
Cosmos 2228 Rocket 3.3 18:43:00 10° SSW 18:47:31 69° W 18:48:47 45° NNW
Nadezhda 3 Rocket 4.1 18:41:16 10° S 18:47:37 79° W 18:54:01 10° N
ISS -0.9 18:51:00 10° NW 18:51:32 13° NW 18:51:32 13° NW
CENTAUR R/B 2.5 18:48:20 10° SSW 18:53:41 58° SE 18:53:41 58° SE
SL-16 R/B 4.5 18:52:02 10° W 18:55:53 18° NW 18:59:46 10° N
NOSS 3-2 (C) 3.5 18:53:07 10° SSW 18:57:44 55° SSE 18:57:44 55° SSE
Cosmos 1821 Rocket 4.3 18:52:38 10° NNW 18:58:50 65° W 19:05:05 10° S
CZ-4 R/B 3.6 19:17:05 20° NW 19:17:05 20° NW 19:18:41 10° NNW
Cosmos 1656 Rocket 4.1 19:10:18 10° NNW 19:15:49 58° WSW 19:17:03 47° SSW
Okean-O 4.1 19:12:23 10° SSW 19:16:28 36° W 19:20:34 10° NNW
Lacrosse 4 Rocket 4.1 19:17:34 10° SSW 19:17:54 12° SSW 19:17:54 12° SSW
NOSS 3-2 (A) 3.7 19:19:08 10° SW 19:24:41 58° NW 19:24:51 57° NW
CZ-2C R/B 4.5 19:20:53 10° SSW 19:25:26 34° W 19:29:50 10° NNW
Meteor 1-11 Rocket 4.3 19:24:39 10° NNW 19:30:18 56° W 19:31:25 48° SW
USA 215 3.6 19:31:02 56° NNW 19:31:29 57° NNW 19:37:51 10° WSW
USA 238 DEB 4.1 19:37:02 10° WSW 19:43:22 53° NW 19:43:22 53° NW
USA 238 4.1 19:37:07 10° SW 19:43:26 54° NW 19:43:26 54° NW
H-2A R/B 3.7 19:47:09 31° WNW 19:47:09 31° WNW 19:50:36 10° NNW
USA 267 4.2 20:05:52 42° WNW 20:05:52 42° WNW 20:10:03 10° NW
